Time,TemperatureF,DewpointF,PressureIn,WindDirection,WindDirectionDegrees,WindSpeedMPH,WindSpeedGustMPH,Humidity,HourlyPrecipIn,Conditions,Clouds,dailyrainin,SoftwareType,DateUTC
2014-03-15 01:03:00,23.7,17.6,29.77,South,180,4.2,-999.0,77,-99.99,,,0.00,Acu-Link.com,2014-03-15 07:03:00,
2014-03-15 01:18:00,21.7,16.8,29.78,WSW,247,4.7,-999.0,81,-99.99,,,0.00,Acu-Link.com,2014-03-15 07:18:00,
2014-03-15 01:33:00,21.7,16.8,29.78,SSW,202,1.1,-999.0,81,-99.99,,,0.00,Acu-Link.com,2014-03-15 07:33:00,
2014-03-15 01:49:00,20.5,15.9,29.78,SSE,157,4.2,-999.0,82,-99.99,,,0.00,Acu-Link.com,2014-03-15 07:49:00,
2014-03-15 02:04:00,21.6,16.1,29.77,SSW,202,5.8,-999.0,79,-99.99,,,0.00,Acu-Link.com,2014-03-15 08:04:00,
2014-03-15 02:19:00,21.9,16.1,29.77,South,180,2.7,-999.0,78,-99.99,,,0.00,Acu-Link.com,2014-03-15 08:19:00,
2014-03-15 02:34:00,19.9,15.9,29.78,East,90,0.0,-999.0,84,-99.99,,,0.00,Acu-Link.com,2014-03-15 08:34:00,
2014-03-15 02:50:00,19.4,15.6,29.78,WNW,292,0.0,-999.0,85,-99.99,,,0.00,Acu-Link.com,2014-03-15 08:50:00,
2014-03-15 03:05:00,20.5,16.4,29.78,SSW,202,2.2,-999.0,84,-99.99,,,0.00,Acu-Link.com,2014-03-15 09:05:00,
2014-03-15 03:20:00,20.7,16.1,29.76,SSW,202,4.2,-999.0,82,-99.99,,,0.00,Acu-Link.com,2014-03-15 09:20:00,
2014-03-15 03:35:00,20.3,16.8,29.77,SSW,202,2.7,-999.0,86,-99.99,,,0.00,Acu-Link.com,2014-03-15 09:35:00,
2014-03-15 03:50:00,20.8,16.7,29.77,SSW,202,2.7,-999.0,84,-99.99,,,0.00,Acu-Link.com,2014-03-15 09:50:00,
2014-03-15 04:06:00,19.8,16.0,29.77,North,0,1.7,-999.0,85,-99.99,,,0.00,Acu-Link.com,2014-03-15 10:06:00,
2014-03-15 04:21:00,21.6,17.0,29.77,South,180,3.2,-999.0,82,-99.99,,,0.00,Acu-Link.com,2014-03-15 10:21:00,
2014-03-15 04:37:00,23.4,19.0,29.77,SE,135,3.2,-999.0,83,-99.99,,,0.00,Acu-Link.com,2014-03-15 10:37:00,
2014-03-15 04:52:00,25.0,20.9,29.77,South,180,0.0,-999.0,84,-99.99,,,0.00,Acu-Link.com,2014-03-15 10:52:00,
2014-03-15 05:07:00,25.2,21.1,29.77,East,90,1.7,-999.0,84,-99.99,,,0.00,Acu-Link.com,2014-03-15 11:07:00,
2014-03-15 05:22:00,27.1,20.2,29.78,NNE,22,1.1,-999.0,75,-99.99,,,0.00,Acu-Link.com,2014-03-15 11:22:00,
2014-03-15 05:38:00,29.5,21.9,29.79,South,180,1.7,-999.0,73,-99.99,,,0.00,Acu-Link.com,2014-03-15 11:38:00,
2014-03-15 05:53:00,31.8,19.5,29.79,SSE,157,0.0,-999.0,60,-99.99,,,0.00,Acu-Link.com,2014-03-15 11:53:00,
2014-03-15 06:08:00,31.6,18.1,29.80,North,0,0.0,-999.0,57,-99.99,,,0.00,Acu-Link.com,2014-03-15 12:08:00,
2014-03-15 06:23:00,32.7,19.2,29.81,WNW,292,3.2,-999.0,57,-99.99,,,0.00,Acu-Link.com,2014-03-15 12:23:00,
2014-03-15 06:38:00,33.8,18.9,29.80,NW,315,6.3,-999.0,54,-99.99,,,0.00,Acu-Link.com,2014-03-15 12:38:00,
2014-03-15 06:54:00,33.8,19.4,29.81,NNW,337,10.4,-999.0,55,-99.99,,,0.00,Acu-Link.com,2014-03-15 12:54:00,
2014-03-15 07:09:00,33.4,22.2,29.81,NE,45,11.9,-999.0,63,-99.99,,,0.00,Acu-Link.com,2014-03-15 13:09:00,
2014-03-15 07:24:00,34.2,18.4,29.79,NNE,22,11.9,-999.0,52,-99.99,,,0.00,Acu-Link.com,2014-03-15 13:24:00,
2014-03-15 07:39:00,33.8,21.4,29.82,NNW,337,8.3,-999.0,60,-99.99,,,0.00,Acu-Link.com,2014-03-15 13:39:00,
2014-03-15 07:54:00,33.3,22.1,29.83,SW,225,4.7,-999.0,63,-99.99,,,0.00,Acu-Link.com,2014-03-15 13:54:00,
2014-03-15 08:09:00,32.5,22.1,29.83,SW,225,2.7,-999.0,65,-99.99,,,0.00,Acu-Link.com,2014-03-15 14:09:00,
2014-03-15 08:24:00,33.6,22.4,29.84,ESE,112,1.1,-999.0,63,-99.99,,,0.00,Acu-Link.com,2014-03-15 14:24:00,
2014-03-15 08:39:00,35.1,22.2,29.85,West,270,0.0,-999.0,59,-99.99,,,0.00,Acu-Link.com,2014-03-15 14:39:00,
2014-03-15 08:55:00,34.9,22.4,29.84,ESE,112,3.7,-999.0,60,-99.99,,,0.00,Acu-Link.com,2014-03-15 14:55:00,
2014-03-15 09:10:00,34.5,22.5,29.85,ESE,112,1.7,-999.0,61,-99.99,,,0.00,Acu-Link.com,2014-03-15 15:10:00,
2014-03-15 09:25:00,37.4,23.6,29.85,WNW,292,3.2,-999.0,57,-99.99,,,0.00,Acu-Link.com,2014-03-15 15:25:00,
2014-03-15 09:41:00,38.3,24.0,29.85,NNW,337,2.7,-999.0,56,-99.99,,,0.00,Acu-Link.com,2014-03-15 15:41:00,
2014-03-15 09:56:00,40.8,25.5,29.85,West,270,11.4,-999.0,54,-99.99,,,0.00,Acu-Link.com,2014-03-15 15:56:00,
2014-03-15 10:11:00,37.6,24.6,29.86,West,270,8.3,-999.0,59,-99.99,,,0.00,Acu-Link.com,2014-03-15 16:11:00,
2014-03-15 10:26:00,35.8,22.9,29.86,WNW,292,13.0,-999.0,59,-99.99,,,0.00,Acu-Link.com,2014-03-15 16:26:00,
2014-03-15 11:52:00,38.3,22.7,29.88,NNE,22,10.4,-999.0,53,-99.99,,,0.00,Acu-Link.com,2014-03-15 17:52:00,
2014-03-15 12:07:00,38.3,21.8,29.88,NNE,22,7.3,-999.0,51,-99.99,,,0.00,Acu-Link.com,2014-03-15 18:07:00,
2014-03-15 12:22:00,40.1,18.3,29.88,NNW,337,5.8,-999.0,41,-99.99,,,0.00,Acu-Link.com,2014-03-15 18:22:00,
2014-03-15 12:37:00,41.0,20.2,29.87,NNE,22,24.3,-999.0,43,-99.99,,,0.00,Acu-Link.com,2014-03-15 18:37:00,
2014-03-15 12:52:00,40.3,16.1,29.90,NE,45,16.6,-999.0,37,-99.99,,,0.00,Acu-Link.com,2014-03-15 18:52:00,
2014-03-15 13:07:00,40.3,15.5,29.90,NNE,22,19.1,-999.0,36,-99.99,,,0.00,Acu-Link.com,2014-03-15 19:07:00,
2014-03-15 13:22:00,40.6,17.6,29.90,NNE,22,17.6,-999.0,39,-99.99,,,0.00,Acu-Link.com,2014-03-15 19:22:00,
2014-03-15 13:37:00,39.9,16.4,29.89,NE,45,9.4,-999.0,38,-99.99,,,0.00,Acu-Link.com,2014-03-15 19:37:00,
2014-03-15 13:52:00,37.6,16.1,29.89,NE,45,11.9,-999.0,41,-99.99,,,0.00,Acu-Link.com,2014-03-15 19:52:00,
2014-03-15 14:07:00,41.7,13.3,29.89,NNE,22,11.4,-999.0,31,-99.99,,,0.00,Acu-Link.com,2014-03-15 20:07:00,
2014-03-15 14:23:00,41.5,10.9,29.89,NNE,22,15.5,-999.0,28,-99.99,,,0.00,Acu-Link.com,2014-03-15 20:23:00,
2014-03-15 14:38:00,41.5,10.9,29.90,West,270,4.2,-999.0,28,-99.99,,,0.00,Acu-Link.com,2014-03-15 20:38:00,
2014-03-15 14:54:00,39.0,10.2,29.91,NNW,337,10.4,-999.0,30,-99.99,,,0.00,Acu-Link.com,2014-03-15 20:54:00,
2014-03-15 15:09:00,40.5,10.8,29.91,NW,315,18.6,-999.0,29,-99.99,,,0.00,Acu-Link.com,2014-03-15 21:09:00,
2014-03-15 15:24:00,40.6,15.1,29.92,NNW,337,20.7,-999.0,35,-99.99,,,0.00,Acu-Link.com,2014-03-15 21:24:00,
2014-03-15 15:39:00,39.4,14.1,29.93,NNE,22,8.9,-999.0,35,-99.99,,,0.00,Acu-Link.com,2014-03-15 21:39:00,
2014-03-15 15:54:00,42.4,16.0,29.94,NNE,22,15.5,-999.0,34,-99.99,,,0.00,Acu-Link.com,2014-03-15 21:54:00,
2014-03-15 16:09:00,42.8,12.0,29.93,NNW,337,16.6,-999.0,28,-99.99,,,0.00,Acu-Link.com,2014-03-15 22:09:00,
2014-03-15 16:25:00,42.4,10.8,29.94,NW,315,18.1,-999.0,27,-99.99,,,0.00,Acu-Link.com,2014-03-15 22:25:00,
2014-03-15 16:40:00,42.4,10.8,29.94,WNW,292,18.1,-999.0,27,-99.99,,,0.00,Acu-Link.com,2014-03-15 22:40:00,
2014-03-15 16:56:00,37.8,10.6,29.96,NNW,337,16.6,-999.0,32,-99.99,,,0.00,Acu-Link.com,2014-03-15 22:56:00,
2014-03-15 17:11:00,40.3,12.1,29.96,NE,45,9.4,-999.0,31,-99.99,,,0.00,Acu-Link.com,2014-03-15 23:11:00,
2014-03-15 17:26:00,40.8,12.5,29.97,North,0,14.5,-999.0,31,-99.99,,,0.00,Acu-Link.com,2014-03-15 23:26:00,
2014-03-15 17:41:00,41.2,10.6,29.98,NW,315,11.9,-999.0,28,-99.99,,,0.00,Acu-Link.com,2014-03-15 23:41:00,
2014-03-15 17:56:00,40.6,10.9,29.98,NW,315,5.8,-999.0,29,-99.99,,,0.00,Acu-Link.com,2014-03-15 23:56:00,
2014-03-15 18:11:00,41.5,10.0,29.99,WNW,292,6.8,-999.0,27,-99.99,,,0.00,Acu-Link.com,2014-03-16 00:11:00,
2014-03-15 18:26:00,40.3,9.0,30.00,NW,315,4.7,-999.0,27,-99.99,,,0.00,Acu-Link.com,2014-03-16 00:26:00,
2014-03-15 18:42:00,38.7,8.4,30.00,NNE,22,9.9,-999.0,28,-99.99,,,0.00,Acu-Link.com,2014-03-16 00:42:00,
2014-03-15 18:57:00,37.9,9.3,30.01,North,0,14.5,-999.0,30,-99.99,,,0.00,Acu-Link.com,2014-03-16 00:57:00,
2014-03-15 19:12:00,36.3,8.6,30.02,NNW,337,10.4,-999.0,31,-99.99,,,0.00,Acu-Link.com,2014-03-16 01:12:00,
2014-03-15 19:27:00,34.9,8.1,30.01,NNE,22,11.4,-999.0,32,-99.99,,,0.00,Acu-Link.com,2014-03-16 01:27:00,
2014-03-15 19:42:00,34.9,9.4,30.02,West,270,9.4,-999.0,34,-99.99,,,0.00,Acu-Link.com,2014-03-16 01:42:00,
2014-03-15 19:57:00,34.9,9.4,30.03,North,0,14.0,-999.0,34,-99.99,,,0.00,Acu-Link.com,2014-03-16 01:57:00,
2014-03-15 20:12:00,33.3,9.9,30.04,NNE,22,4.2,-999.0,37,-99.99,,,0.00,Acu-Link.com,2014-03-16 02:12:00,
2014-03-15 20:27:00,33.4,9.4,30.04,NNE,22,7.8,-999.0,36,-99.99,,,0.00,Acu-Link.com,2014-03-16 02:27:00,
2014-03-15 20:42:00,33.3,9.9,30.03,NNE,22,7.3,-999.0,37,-99.99,,,0.00,Acu-Link.com,2014-03-16 02:42:00,
2014-03-15 20:58:00,33.3,9.9,30.04,NNW,337,2.7,-999.0,37,-99.99,,,0.00,Acu-Link.com,2014-03-16 02:58:00,
2014-03-15 21:13:00,32.2,9.5,30.05,NNW,337,5.3,-999.0,38,-99.99,,,0.00,Acu-Link.com,2014-03-16 03:13:00,
2014-03-15 21:28:00,32.4,9.7,30.05,NNW,337,10.4,-999.0,38,-99.99,,,0.00,Acu-Link.com,2014-03-16 03:28:00,
2014-03-15 21:43:00,31.8,9.1,30.06,NNE,22,7.8,-999.0,38,-99.99,,,0.00,Acu-Link.com,2014-03-16 03:43:00,
2014-03-15 21:58:00,32.0,9.3,30.06,North,0,5.3,-999.0,38,-99.99,,,0.00,Acu-Link.com,2014-03-16 03:58:00,
2014-03-15 22:13:00,32.4,9.7,30.07,NNE,22,7.3,-999.0,38,-99.99,,,0.00,Acu-Link.com,2014-03-16 04:13:00,
2014-03-15 22:28:00,30.6,10.3,30.08,NE,45,3.7,-999.0,42,-99.99,,,0.00,Acu-Link.com,2014-03-16 04:28:00,
2014-03-15 22:43:00,30.4,10.6,30.08,NE,45,4.2,-999.0,43,-99.99,,,0.00,Acu-Link.com,2014-03-16 04:43:00,
2014-03-15 22:58:00,28.9,10.3,30.09,NNW,337,0.0,-999.0,45,-99.99,,,0.00,Acu-Link.com,2014-03-16 04:58:00,
2014-03-15 23:13:00,26.6,10.0,30.09,ESE,112,3.2,-999.0,49,-99.99,,,0.00,Acu-Link.com,2014-03-16 05:13:00,
2014-03-15 23:29:00,27.7,10.1,30.09,NNE,22,7.8,-999.0,47,-99.99,,,0.00,Acu-Link.com,2014-03-16 05:29:00,
2014-03-15 23:44:00,26.2,10.6,30.09,SSE,157,4.2,-999.0,51,-99.99,,,0.00,Acu-Link.com,2014-03-16 05:44:00,
2014-03-15 23:59:00,23.7,10.7,30.10,SW,225,3.2,-999.0,57,-99.99,,,0.00,Acu-Link.com,2014-03-16 05:59:00,